Temp
83 84 85 75 64 66 63 66 73 68 70 78 80 76 74 73 69 67 81 82 85 86 86 85 82 82 82 82 82 82 83 83 82 82 83 83 83 83 83 83 84 83 84 84 84 83 83 83 83
84 81 79 67 63 60 62 70 69 74 78 80 79 78 74 67 74 73 78 83 86 87 87 87 81 82 82 82 82 82 83 83 83 83 83 83 83 83 84 84 84 84 84 84 84 84 84 84 84
83 82 68 67 62 58 62 71 73 78 80 78 73 77 74 68 74 77 83 85 87 86 87 86 82 82 82 82 83 83 83 83 83 83 83 83 83 83 83 84 83 84 84 84 84 83 83 84 83
82 77 72 62 59 66 68 74 78 76 80 78 77 69 74 80 78 78 84 86 87 86 88 84 82 83 82 82 82 83 83 83 82 83 83 83 83 83 84 84 84 83 84 84 84 84 84 84 83
82 75 64 59 60 68 74 77 80 75 77 76 77 66 68 76 82 83 84 86 86 87 88 88 82 82 83 83 82 82 83 82 83 83 83 82 83 84 84 84 84 84 84 85 85 85 84 84 83
70 72 59 56 60 66 74 79 78 77 76 72 72 72 70 77 80 82 85 85 87 87 88 88 83 82 82 83 82 83 83 83 83 83 83 84 84 84 84 84 84 85 84 84 84 84 84 83 83
66 60 59 60 60 62 71 78 75 74 74 73 78 70 68 74 80 83 84 85 87 87 87 87 89 85 82 83 82 82 83 83 83 83 83 84 83 83 84 85 84 85 85 85 85 84 84 84 83
73 67 61 59 60 60 71 74 75 75 72 81 82 68 65 76 81 83 83 84 85 85 86 85 85 86 86 85 82 83 83 83 83 82 83 84 84 84 83 83 84 85 85 85 84 84 84 84 83
78 62 60 58 60 62 71 72 75 80 76 79 79 79 80 80 81 80 80 81 82 83 84 84 85 85 83 84 83 83 83 83 83 83 81 83 86 86 83 83 84 84 84 84 84 83 83 83 83
72 65 62 65 65 65 72 73 74 73 73 72 73 77 79 79 79 79 79 78 78 80 83 83 85 85 85 86 82 83 85 86 85 84 83 86 86 85 87 85 83 82 84 84 83 81 81 84 90
71 64 67 65 67 68 70 73 78 72 69 73 71 73 77 78 78 80 81 81 80 81 82 83 83 83 84 82 84 85 85 85 84 83 84 85 85 85 85 85 85 85 82 89 87 88 89 86 89
67 71 70 66 68 68 68 74 70 72 73 79 78 78 78 78 79 80 81 80 80 80 82 83 83 82 82 81 84 85 85 85 85 85 83 84 85 84 83 84 83 83 85 84 85 89 86 87 87
70 70 71 69 72 76 71 71 68 69 75 78 79 78 78 80 80 81 83 82 82 81 82 83 82 81 81 82 84 84 84 86 86 86 84 86 85 83 84 82 84 83 85 86 86 85 86 87 88
72 74 72 72 71 75 67 67 71 69 77 76 78 78 80 79 80 80 80 81 81 82 82 83 82 82 83 82 82 83 85 85 86 86 85 83 85 83 84 83 84 84 86 87 86 85 87 87 90
75 68 72 72 72 71 69 63 63 71 77 75 77 78 79 80 81 81 82 81 83 83 83 82 82 83 82 82 83 84 86 87 86 85 83 83 83 82 82 83 83 84 84 84 86 87 88 90 92
70 70 63 68 71 69 69 57 63 67 73 74 75 77 78 80 82 83 84 84 84 84 82 83 86 84 83 82 83 85 86 87 86 86 86 83 83 82 82 85 84 84 85 87 87 88 89 89 90
69 63 62 63 68 67 65 59 63 67 70 74 76 76 78 79 81 83 85 85 85 84 83 82 84 83 83 82 84 84 83 86 86 86 86 83 83 83 84 85 85 84 86 87 89 87 88 88 89
63 61 65 60 65 68 66 65 64 65 67 74 76 78 78 79 81 83 85 86 86 84 83 83 84 83 82 82 82 84 85 86 85 86 86 83 84 83 84 85 84 86 87 87 88 85 87 87 87
71 68 63 63 65 64 63 65 62 63 69 71 73 75 78 79 84 85 85 85 85 84 83 82 82 82 82 80 82 82 83 84 84 86 83 83 84 83 82 86 85 86 86 85 85 87 85 88 87
71 67 62 62 63 64 61 62 66 65 67 74 73 77 79 78 82 82 83 85 85 83 83 82 82 81 82 83 82 84 82 78 84 84 83 84 84 83 84 84 86 85 86 84 84 83 87 88 86
68 67 62 64 64 64 60 58 60 66 68 71 73 79 81 81 81 81 78 84 85 83 82 82 82 81 82 83 82 81 81 82 80 81 84 85 84 84 83 84 85 84 87 87 84 85 83 86 86
65 72 69 62 62 59 65 48 58 63 62 65 72 74 80 82 83 83 83 83 84 84 84 83 82 81 82 81 82 80 82 78 80 80 83 85 84 84 84 84 84 83 86 84 85 87 85 86 84
67 75 68 68 63 62 59 54 60 62 61 64 67 77 81 82 83 83 83 83 86 85 84 83 82 81 82 81 83 84 82 83 80 84 80 82 82 83 85 83 83 83 86 84 84 83 84 87 86
72 70 67 65 62 53 63 60 55 59 65 69 71 72 80 82 83 81 85 82 83 86 85 84 80 79 81 80 81 81 80 80 82 82 82 80 84 82 83 85 83 83 84 84 85 84 84 85 85
71 66 57 53 53 55 61 60 68 67 70 73 73 74 76 81 82 82 82 82 82 81 83 83 81 79 80 80 81 82 80 81 81 81 83 82 84 85 83 82 82 84 83 84 84 83 84 85 87
68 70 62 49 52 57 60 57 67 69 73 75 77 79 78 79 82 82 82 83 80 82 82 83 82 80 80 80 80 80 81 83 83 82 83 84 84 84 85 84 84 84 84 84 83 86 87 85 87
67 63 74 63 62 61 59 61 67 68 69 73 74 75 74 75 80 81 81 82 81 77 81 82 80 80 81 82 81 80 80 81 83 81 82 84 83 85 85 85 85 85 84 83 83 86 83 85 85
73 77 64 65 53 53 56 57 61 62 66 71 72 73 76 79 78 76 75 81 82 79 81 80 82 80 80 82 82 82 82 81 82 82 81 81 83 83 83 83 84 84 84 84 83 83 83 83 86
68 67 67 70 64 59 56 60 67 66 67 67 70 74 74 75 75 74 76 78 74 76 77 80 81 79 74 82 81 80 81 82 82 82 81 82 83 82 82 82 82 82 83 83 83 83 83 83 83
71 72 72 64 58 62 61 61 67 69 69 67 67 70 74 77 77 78 76 73 74 71 71 75 75 77 80 77 81 81 82 81 81 81 82 81 81 82 82 82 82 83 83 84 82 83 83 83 83
MSLP
1012.33 1012.38 1012.33 1012.36 1012.56 1011.50 1010.76 1010.54 1010.57 1011.35 1011.95 1012.28 1012.82 1013.00 1013.43 1014.10 1014.52 1015.36 1016.14 1016.49 1016.41 1016.58 1017.03 1017.41 1017.72 1017.93 1018.15 1018.25 1018.36 1018.41 1018.46 1018.52 1018.61 1018.62 1018.61 1018.61 1018.63 1018.72 1018.77 1018.85 1018.90 1019.01 1019.05 1019.08 1019.10 1019.24 1019.40 1019.51 1019.64
1012.30 1012.49 1012.38 1012.25 1011.99 1011.09 1010.66 1010.37 1010.30 1010.70 1011.28 1012.14 1012.72 1013.06 1013.58 1014.74 1015.28 1015.86 1016.03 1016.43 1016.47 1016.69 1017.17 1017.44 1017.97 1018.12 1018.31 1018.44 1018.51 1018.58 1018.66 1018.70 1018.80 1018.80 1018.74 1018.80 1018.85 1018.94 1018.99 1019.07 1019.27 1019.33 1019.37 1019.54 1019.46 1019.59 1019.68 1019.89 1019.99
1012.32 1012.30 1012.37 1012.11 1011.90 1011.12 1010.43 1010.10 1010.18 1010.79 1011.41 1012.06 1012.87 1013.58 1014.28 1015.25 1015.78 1015.99 1016.11 1016.40 1016.52 1016.99 1017.29 1017.68 1018.05 1018.21 1018.43 1018.61 1018.64 1018.73 1018.85 1018.94 1019.02 1019.04 1019.15 1019.15 1019.24 1019.03 1019.13 1019.40 1019.70 1019.75 1019.77 1019.82 1019.95 1020.09 1020.19 1020.19 1020.34
1012.18 1012.40 1012.43 1012.27 1011.73 1011.21 1010.51 1010.09 1010.14 1010.73 1011.73 1012.49 1013.01 1014.07 1015.26 1015.45 1015.90 1016.39 1016.41 1016.49 1016.77 1017.07 1017.41 1018.03 1018.23 1018.34 1018.56 1018.93 1018.91 1018.93 1019.02 1019.09 1019.17 1019.32 1019.52 1019.60 1019.36 1019.39 1019.56 1019.82 1019.97 1020.12 1020.17 1020.17 1020.19 1020.28 1020.41 1020.47 1020.56
1012.04 1012.07 1012.21 1012.39 1012.40 1011.47 1010.78 1010.50 1010.46 1010.96 1011.58 1012.48 1012.96 1014.57 1015.49 1016.30 1016.30 1016.71 1016.80 1016.76 1016.96 1017.31 1017.69 1017.97 1018.32 1018.55 1018.72 1018.93 1019.10 1019.19 1019.30 1019.33 1019.47 1019.58 1019.55 1019.74 1019.74 1019.89 1019.80 1020.03 1020.21 1020.23 1020.50 1020.46 1020.47 1020.50 1020.68 1020.77 1020.94
1011.95 1012.41 1012.59 1012.53 1012.55 1011.93 1011.30 1010.97 1011.04 1011.35 1012.09 1012.91 1013.57 1014.45 1016.08 1016.70 1016.74 1017.08 1017.14 1017.22 1017.33 1017.54 1017.78 1018.07 1018.52 1018.77 1019.00 1019.17 1019.26 1019.38 1019.45 1019.59 1019.67 1019.68 1019.78 1019.96 1020.09 1020.18 1020.21 1020.43 1020.58 1020.63 1020.77 1020.80 1020.85 1020.84 1021.01 1021.16 1021.29
1012.20 1012.32 1012.70 1012.77 1012.63 1012.34 1011.70 1011.46 1011.51 1011.74 1012.34 1012.89 1013.44 1014.44 1016.51 1016.69 1017.10 1017.38 1017.60 1017.75 1017.77 1017.93 1018.07 1018.27 1018.38 1018.91 1019.19 1019.34 1019.46 1019.54 1019.60 1019.74 1019.82 1019.94 1019.98 1020.22 1020.34 1020.57 1020.63 1020.78 1020.87 1020.90 1020.99 1021.04 1021.20 1021.29 1021.38 1021.51 1021.65
1012.08 1012.49 1012.61 1012.86 1012.66 1012.56 1012.17 1011.93 1012.10 1012.09 1012.81 1013.22 1013.50 1014.30 1015.83 1016.58 1017.10 1017.60 1018.02 1018.18 1018.32 1018.28 1018.39 1018.69 1018.83 1019.07 1019.25 1019.45 1019.72 1019.78 1019.89 1019.93 1020.06 1020.35 1020.41 1020.45 1020.71 1020.97 1021.07 1021.28 1021.25 1021.27 1021.31 1021.39 1021.50 1021.59 1021.68 1021.78 1021.94
1011.90 1012.23 1012.51 1012.77 1012.71 1012.78 1012.56 1012.16 1012.45 1012.67 1012.82 1013.17 1013.61 1014.13 1015.33 1016.59 1017.23 1017.64 1018.21 1018.52 1018.70 1018.82 1018.90 1019.06 1019.04 1019.29 1019.60 1019.78 1019.96 1019.98 1020.14 1020.19 1020.35 1020.63 1020.94 1020.94 1021.04 1021.17 1021.38 1021.67 1021.51 1021.64 1021.73 1021.73 1021.74 1021.85 1021.98 1022.02 1022.13
1011.70 1012.01 1012.35 1012.73 1012.91 1013.00 1012.67 1012.47 1012.45 1012.92 1013.31 1013.93 1014.40 1015.42 1016.28 1016.92 1017.23 1017.46 1017.79 1018.38 1018.88 1018.95 1019.18 1019.31 1019.36 1019.46 1019.73 1019.84 1020.27 1020.32 1020.38 1020.39 1020.62 1020.85 1021.07 1021.12 1021.28 1021.47 1021.44 1021.77 1022.01 1022.16 1022.05 1022.01 1022.10 1022.28 1022.32 1022.18 1021.97
1011.56 1011.86 1012.52 1012.98 1012.96 1013.33 1013.10 1012.74 1012.81 1013.35 1013.72 1013.71 1013.99 1015.31 1016.31 1016.78 1017.16 1017.50 1017.78 1018.13 1018.68 1019.12 1019.43 1019.61 1019.74 1019.94 1020.04 1020.33 1020.42 1020.36 1020.49 1020.69 1021.00 1021.23 1021.29 1021.48 1021.63 1021.86 1021.98 1022.18 1022.26 1022.35 1022.43 1022.10 1022.18 1022.18 1022.11 1022.17 1022.15
1011.29 1011.80 1012.31 1013.01 1013.45 1013.55 1013.32 1013.12 1013.62 1013.51 1013.57 1013.93 1014.49 1015.08 1016.05 1016.61 1016.98 1017.36 1017.76 1018.25 1018.63 1019.15 1019.50 1019.71 1019.86 1020.19 1020.40 1020.57 1020.52 1020.58 1020.67 1020.84 1021.00 1021.35 1021.63 1021.68 1021.69 1022.03 1022.25 1022.37 1022.55 1022.53 1022.49 1022.48 1022.41 1022.09 1022.19 1022.08 1022.12
1011.07 1011.53 1012.01 1012.50 1013.04 1012.95 1013.76 1013.75 1014.13 1014.20 1014.18 1014.74 1015.30 1015.61 1016.02 1016.53 1017.01 1017.41 1017.87 1018.25 1018.61 1018.97 1019.44 1019.83 1020.07 1020.37 1020.50 1020.56 1020.61 1020.81 1020.97 1020.96 1021.12 1021.36 1021.64 1021.73 1021.86 1022.22 1022.37 1022.69 1022.59 1022.65 1022.59 1022.45 1022.34 1022.33 1022.16 1022.00 1021.92
1010.85 1011.16 1011.65 1011.73 1012.67 1012.91 1013.58 1014.46 1014.26 1015.18 1014.86 1015.28 1015.52 1015.71 1016.15 1016.52 1016.90 1017.33 1017.80 1018.11 1018.52 1018.89 1019.34 1019.84 1020.20 1020.41 1020.56 1020.74 1020.85 1020.96 1021.16 1021.33 1021.40 1021.50 1021.64 1021.93 1021.96 1022.23 1022.37 1022.59 1022.54 1022.67 1022.64 1022.55 1022.47 1022.31 1022.10 1021.92 1021.75
1010.48 1010.90 1011.23 1011.91 1012.58 1013.11 1013.97 1015.14 1015.13 1015.38 1015.11 1015.41 1015.70 1015.86 1016.28 1016.63 1016.96 1017.15 1017.50 1017.97 1018.37 1018.84 1019.33 1019.79 1020.16 1020.48 1020.70 1020.87 1020.99 1021.02 1021.14 1021.25 1021.41 1021.66 1021.97 1022.14 1022.18 1022.43 1022.54 1022.56 1022.62 1022.69 1022.74 1022.64 1022.52 1022.19 1022.03 1021.76 1021.74
1010.17 1010.52 1010.83 1012.03 1012.43 1013.39 1013.39 1014.75 1015.41 1015.68 1015.53 1015.53 1015.77 1015.91 1016.34 1016.65 1016.89 1017.13 1017.43 1017.80 1018.39 1018.86 1019.38 1019.80 1019.77 1020.33 1020.67 1020.95 1021.11 1021.16 1021.26 1021.34 1021.53 1021.68 1021.94 1022.20 1022.34 1022.51 1022.55 1022.41 1022.61 1022.78 1022.69 1022.44 1022.23 1021.98 1021.94 1022.00 1021.98
1009.90 1010.13 1010.69 1012.13 1012.63 1013.13 1013.88 1014.22 1015.58 1015.82 1015.54 1015.41 1015.58 1015.75 1016.13 1016.58 1016.86 1017.09 1017.36 1017.75 1018.25 1018.91 1019.41 1019.75 1020.05 1020.30 1020.70 1021.08 1021.10 1021.29 1021.45 1021.46 1021.66 1021.87 1022.01 1022.23 1022.42 1022.53 1022.49 1022.48 1022.62 1022.75 1022.52 1022.36 1022.07 1022.12 1022.11 1022.10 1022.03
1009.26 1010.15 1010.72 1011.74 1012.84 1013.06 1013.75 1014.48 1015.68 1015.89 1015.76 1015.37 1015.42 1015.56 1015.88 1016.13 1016.28 1016.76 1017.27 1017.65 1018.19 1018.87 1019.43 1019.71 1019.97 1020.32 1020.63 1021.02 1021.32 1021.36 1021.42 1021.54 1021.77 1021.78 1021.95 1022.31 1022.38 1022.47 1022.58 1022.60 1022.59 1022.54 1022.34 1022.32 1022.17 1022.20 1022.18 1022.27 1022.23
1008.87 1009.64 1010.60 1012.11 1013.13 1013.50 1014.25 1014.56 1015.36 1015.57 1015.85 1015.33 1015.50 1015.52 1015.63 1015.70 1016.06 1016.63 1017.14 1017.56 1017.95 1018.63 1019.25 1019.64 1019.90 1020.23 1020.68 1021.03 1021.14 1021.42 1021.40 1021.61 1021.69 1021.75 1022.02 1022.20 1022.24 1022.47 1022.60 1022.51 1022.65 1022.56 1022.43 1022.50 1022.38 1022.39 1022.35 1022.14 1022.31
1008.94 1009.46 1010.78 1012.51 1013.15 1013.37 1014.12 1014.67 1015.19 1015.41 1015.42 1014.99 1015.07 1015.12 1015.21 1015.54 1015.96 1016.50 1016.84 1017.24 1017.58 1018.16 1018.90 1019.42 1019.74 1020.15 1020.39 1020.74 1020.84 1021.04 1021.41 1021.95 1021.57 1021.86 1021.83 1022.02 1022.21 1022.43 1022.50 1022.56 1022.52 1022.57 1022.49 1022.57 1022.52 1022.59 1022.34 1022.34 1022.46
1009.21 1009.47 1010.48 1011.34 1013.14 1013.72 1014.07 1014.92 1015.28 1015.37 1015.41 1015.45 1015.37 1015.01 1015.00 1015.04 1015.43 1016.03 1016.56 1016.78 1017.35 1017.75 1018.35 1019.12 1019.52 1020.06 1020.27 1020.53 1020.88 1021.23 1021.51 1021.74 1021.91 1021.92 1021.94 1021.98 1022.27 1022.41 1022.47 1022.55 1022.62 1022.66 1022.43 1022.49 1022.70 1022.73 1022.67 1022.35 1022.58
1009.15 1009.69 1010.40 1011.42 1012.23 1013.05 1013.99 1014.84 1014.98 1015.03 1015.47 1015.32 1014.92 1014.83 1014.51 1014.64 1015.00 1015.31 1015.92 1016.42 1016.85 1017.26 1018.07 1018.93 1019.47 1019.91 1020.33 1020.54 1020.67 1020.86 1020.92 1021.35 1021.63 1021.69 1021.81 1021.82 1022.15 1022.28 1022.47 1022.51 1022.59 1022.71 1022.72 1022.80 1022.82 1022.71 1022.84 1022.64 1022.41
1009.29 1009.57 1010.21 1010.94 1011.86 1012.78 1013.96 1014.22 1013.82 1014.48 1014.39 1014.58 1014.29 1013.93 1013.85 1014.19 1014.57 1014.90 1015.43 1015.71 1016.40 1017.20 1017.74 1018.55 1019.29 1019.83 1020.16 1020.50 1020.57 1020.62 1020.97 1021.27 1021.59 1021.72 1021.81 1021.86 1022.11 1022.25 1022.41 1022.57 1022.64 1022.74 1022.75 1022.99 1022.95 1023.03 1022.93 1022.83 1022.66
1009.65 1009.69 1010.62 1011.29 1011.77 1012.20 1012.09 1012.76 1012.73 1012.43 1011.70 1013.06 1013.52 1013.24 1013.25 1013.62 1014.20 1014.65 1014.84 1015.91 1016.50 1017.16 1017.69 1018.31 1018.98 1019.57 1020.08 1020.47 1020.69 1020.76 1020.75 1021.11 1021.22 1021.49 1021.59 1021.86 1021.90 1022.04 1022.21 1022.43 1022.68 1022.73 1022.78 1022.91 1022.90 1023.01 1023.10 1022.96 1022.99
1009.28 1009.23 1009.86 1010.70 1011.01 1010.85 1011.71 1012.05 1010.28 1011.26 1011.55 1011.64 1012.02 1012.63 1013.15 1013.32 1013.77 1014.25 1015.06 1015.67 1016.32 1016.84 1017.29 1017.92 1018.66 1019.22 1019.86 1020.37 1020.66 1020.84 1020.83 1020.96 1021.15 1021.39 1021.43 1021.51 1021.59 1021.74 1022.02 1022.34 1022.53 1022.64 1022.83 1022.89 1022.97 1023.10 1023.09 1023.05 1022.99
1008.70 1008.54 1008.16 1008.72 1009.38 1010.07 1011.17 1010.85 1010.21 1010.77 1011.13 1011.12 1011.46 1011.92 1012.94 1013.11 1013.39 1013.88 1014.51 1015.14 1015.84 1016.43 1017.18 1017.74 1018.40 1019.04 1019.81 1020.28 1020.70 1021.04 1021.12 1021.12 1021.23 1021.31 1021.38 1021.45 1021.47 1021.43 1021.56 1021.93 1022.19 1022.47 1022.67 1022.80 1022.99 1022.75 1022.72 1022.94 1023.11
1008.25 1008.15 1008.19 1008.25 1008.94 1009.00 1009.84 1010.27 1010.32 1010.70 1010.72 1010.87 1010.99 1011.71 1012.30 1013.09 1013.44 1013.68 1014.39 1014.98 1015.57 1016.42 1016.84 1017.55 1018.21 1018.89 1019.60 1020.10 1020.57 1020.89 1021.08 1021.18 1021.00 1021.25 1021.33 1021.27 1021.32 1021.31 1021.42 1021.53 1021.87 1022.12 1022.37 1022.64 1022.86 1022.71 1022.74 1023.00 1023.15
1007.52 1007.52 1008.08 1007.94 1007.81 1008.01 1009.02 1009.51 1009.58 1010.41 1010.55 1010.61 1010.82 1011.23 1012.03 1012.75 1013.64 1014.16 1014.63 1015.18 1015.57 1016.37 1016.76 1017.35 1017.93 1018.60 1019.24 1019.77 1020.17 1020.49 1020.74 1020.96 1021.13 1021.18 1021.12 1021.15 1021.22 1021.27 1021.33 1021.51 1021.70 1021.90 1022.11 1022.23 1022.51 1022.67 1022.70 1022.84 1022.88
1007.69 1007.43 1007.54 1007.21 1007.60 1007.20 1008.30 1008.77 1009.57 1009.98 1010.78 1011.18 1011.54 1011.78 1012.50 1012.95 1013.80 1014.24 1014.84 1015.52 1015.99 1016.45 1017.10 1017.45 1017.95 1018.46 1019.14 1019.25 1019.85 1020.20 1020.47 1020.73 1020.89 1020.96 1020.85 1020.90 1021.01 1021.27 1021.46 1021.42 1021.63 1021.61 1021.68 1021.65 1022.03 1022.31 1022.64 1022.72 1022.76
1007.35 1006.80 1006.85 1006.51 1007.26 1007.82 1008.25 1009.18 1010.11 1010.59 1011.32 1011.93 1012.42 1012.75 1012.99 1013.32 1013.82 1014.29 1015.10 1015.75 1016.26 1016.70 1017.23 1017.77 1018.23 1018.51 1018.63 1019.12 1019.49 1019.97 1020.35 1020.71 1020.88 1020.84 1020.87 1020.50 1020.77 1020.98 1021.20 1021.09 1021.03 1021.28 1021.38 1021.40 1021.76 1022.03 1022.28 1022.51 1022.60
Wind_Speed
5 6 1 1 2 1 2 5 5 16 13 8 15 5 9 7 2 5 9 6 14 12 10 10 10 11 9 8 9 9 8 9 10 10 10 11 12 12 13 13 14 15 15 15 16 17 17 16 15
6 4 0 0 1 2 3 2 13 13 16 21 7 12 4 5 4 10 9 13 14 12 10 10 9 10 9 8 8 8 8 7 9 9 8 9 10 12 13 14 15 14 14 15 15 16 17 17 15
7 1 0 1 1 2 3 4 14 14 17 15 6 7 4 4 10 10 9 15 15 12 10 11 10 10 9 9 8 8 8 9 8 9 9 9 9 12 14 15 15 15 13 14 13 12 12 12 12
2 2 1 0 3 5 3 9 18 20 19 5 12 9 6 6 9 6 15 15 14 12 10 11 9 9 8 9 8 8 7 7 8 11 9 9 11 13 14 16 14 13 14 12 11 10 10 11 11
2 1 1 3 2 5 10 9 16 19 13 10 5 6 11 3 9 16 14 13 13 11 10 10 10 9 9 8 9 8 7 9 10 10 10 11 13 14 14 15 15 13 13 13 11 10 11 11 12
2 2 1 2 3 2 4 8 14 11 10 11 14 14 7 8 16 13 12 12 11 11 9 9 9 9 9 8 10 10 10 10 10 8 10 10 13 13 14 14 14 13 13 12 14 15 13 11 10
2 1 2 2 7 1 3 5 7 9 11 7 16 11 6 14 13 12 12 11 10 9 8 8 8 9 10 9 10 11 11 10 10 9 10 10 12 13 13 13 14 12 12 13 13 13 10 9 9
3 3 4 1 11 3 2 3 10 10 8 13 14 8 12 14 15 13 11 10 9 8 8 7 6 7 7 8 9 11 10 10 9 11 11 11 12 12 14 11 12 12 12 12 10 10 9 9 8
2 2 3 2 9 5 1 6 4 9 12 4 3 14 18 19 16 14 12 9 8 7 7 6 7 7 7 7 7 10 12 10 11 12 11 10 8 10 11 11 13 11 10 9 9 9 8 8 8
2 1 2 2 3 4 4 9 12 7 12 12 17 19 19 18 16 15 14 11 8 8 8 6 7 7 6 6 7 7 8 7 7 7 8 7 8 8 9 12 12 9 8 9 8 8 6 2 3
3 1 8 3 2 3 5 10 9 13 8 16 25 24 20 18 15 14 13 12 10 8 6 6 6 6 6 5 5 4 4 5 5 7 6 7 6 6 6 5 4 4 5 3 3 2 1 1 0
2 3 6 7 8 6 4 9 8 4 4 15 22 24 19 18 15 13 12 11 10 9 7 7 7 6 5 4 4 5 5 5 5 5 6 5 4 5 5 4 4 4 3 2 2 2 3 3 1
4 3 8 10 13 12 9 7 6 11 16 18 19 19 19 16 13 10 9 10 9 10 8 7 7 6 5 6 5 4 4 4 5 4 4 4 5 5 4 4 3 3 3 2 2 3 3 3 2
5 5 6 13 13 15 15 6 5 2 16 17 18 18 16 15 14 10 10 11 10 9 9 8 7 6 6 5 5 4 4 4 3 3 4 5 4 4 4 3 4 4 2 2 2 3 2 4 5
7 5 7 15 17 13 17 8 3 9 16 18 16 15 14 13 13 12 11 11 11 9 9 9 8 7 7 6 5 3 3 4 3 3 4 4 3 4 4 4 4 4 2 2 2 2 3 4 3
3 1 4 6 14 8 6 11 11 7 12 18 17 15 14 14 14 12 11 11 11 10 9 10 8 9 8 6 5 3 2 3 4 4 3 3 2 2 2 3 3 3 2 2 2 3 4 3 3
3 3 5 7 3 9 4 7 17 15 12 17 17 15 14 13 13 11 13 12 11 10 9 10 10 9 9 6 4 4 3 3 3 3 3 3 3 3 3 3 3 3 3 2 2 4 3 3 3
8 4 6 6 5 6 7 7 22 16 14 17 16 16 16 15 17 14 13 12 12 10 10 9 8 8 7 5 4 3 3 2 3 3 3 5 3 3 3 3 3 2 3 3 3 4 3 3 4
7 4 8 6 4 7 5 11 18 17 17 17 15 16 16 16 15 13 13 12 12 11 11 11 9 8 8 5 5 5 5 3 3 2 5 5 4 4 4 2 3 3 3 4 4 2 3 3 4
8 10 8 10 3 7 8 4 15 18 16 16 16 17 17 14 14 14 15 14 14 13 12 11 10 9 10 7 5 4 5 2 2 3 4 4 4 3 4 2 2 2 4 4 4 4 2 2 4
4 3 8 8 9 11 11 3 9 5 6 6 8 15 16 17 17 16 14 16 14 15 14 12 11 10 8 7 6 5 5 4 4 4 3 3 4 4 3 2 0 2 1 3 3 3 3 3 3
7 7 9 17 7 4 3 2 8 12 10 14 16 10 17 17 18 17 17 17 16 16 13 12 12 10 8 9 8 10 6 4 3 4 4 4 5 4 4 4 3 3 1 2 2 2 3 2 4
1 12 13 15 7 7 9 4 5 14 16 18 18 19 15 18 18 19 19 18 17 14 14 13 12 11 9 9 8 7 6 4 3 3 5 6 6 5 5 4 4 4 2 2 2 3 3 3 4
9 15 12 5 2 4 11 8 7 14 27 21 24 22 20 16 19 17 20 12 13 13 13 13 12 12 10 9 8 8 9 6 5 5 4 4 4 4 5 5 4 4 4 4 3 2 2 3 3
9 14 5 4 4 3 3 10 6 16 9 25 27 23 20 16 18 18 17 17 15 15 15 13 13 13 12 10 9 8 7 7 6 5 5 6 5 5 5 5 5 4 3 4 3 3 2 2 1
12 11 6 7 6 4 6 8 1 4 11 16 23 22 22 17 18 19 19 18 16 17 14 13 12 12 11 10 9 6 6 4 4 6 4 4 4 4 5 5 5 5 4 4 4 4 3 3 1
7 9 6 2 1 6 5 3 4 4 9 15 20 21 21 16 17 19 17 16 16 11 15 14 11 10 10 10 8 8 6 6 4 5 4 4 4 3 5 5 5 5 5 4 5 5 4 3 2
7 9 10 5 8 7 4 3 4 8 9 13 16 19 18 17 15 10 10 13 12 11 11 11 12 11 10 10 9 8 8 7 4 4 4 4 4 5 5 5 5 6 7 7 6 4 4 4 4
7 6 3 6 4 9 6 4 3 8 12 13 12 14 14 15 12 9 10 11 8 8 7 9 11 12 9 11 9 9 8 7 5 5 3 4 4 4 5 5 6 9 9 9 7 6 5 6 5
2 10 13 10 10 1 4 3 3 6 11 13 13 11 11 11 12 11 9 8 10 8 7 4 5 8 10 8 9 9 7 6 6 5 4 4 4 4 4 6 5 5 7 7 7 7 6 7 6
Wind_Direction
161 144 155 232 220 255 85 101 92 124 140 146 150 160 124 44 29 93 130 131 140 140 137 145 131 111 107 101 96 95 97 106 103 98 97 104 108 108 105 109 103 102 103 97 96 97 96 93 89
150 147 258 291 331 90 82 100 134 145 143 144 113 131 94 78 76 120 130 146 139 130 130 132 118 115 117 114 110 108 100 111 111 99 106 107 115 117 110 109 100 104 101 100 101 99 97 89 85
160 281 159 10 58 51 100 121 138 128 136 143 113 59 60 68 119 130 138 143 138 129 132 122 126 121 122 123 119 114 106 115 111 112 110 108 113 116 117 112 109 103 99 95 94 94 97 87 85
168 179 119 57 111 20 52 138 138 134 140 93 114 76 84 113 127 146 144 143 136 136 129 126 130 129 121 115 123 121 118 117 130 117 112 108 102 103 107 110 108 104 101 95 91 93 90 86 93
201 213 90 100 3 51 90 118 144 137 148 133 130 95 109 60 120 142 144 145 138 132 133 135 136 119 115 107 108 110 113 97 97 112 126 121 108 106 108 109 109 106 97 85 76 95 102 93 96
79 348 109 172 133 355 85 107 136 133 132 117 106 114 89 129 134 146 145 141 137 132 135 131 126 117 108 107 98 99 97 101 99 112 104 109 106 105 106 106 106 102 94 87 79 86 94 92 95
60 146 161 204 157 338 84 85 132 127 131 111 133 110 115 146 139 147 141 135 135 128 127 128 127 108 99 96 97 100 100 107 111 113 106 110 109 100 95 101 106 109 103 99 86 82 92 102 94
155 226 155 41 163 180 340 99 104 119 88 117 136 145 157 158 150 141 136 135 134 137 129 116 107 103 103 106 103 103 100 101 100 89 96 100 106 91 99 107 108 101 102 101 90 87 87 121 111
172 275 110 142 138 144 231 133 69 105 124 100 131 140 132 142 145 142 138 139 143 142 130 129 124 114 108 105 97 98 103 96 88 90 79 90 98 99 107 102 98 98 104 102 88 90 85 107 108
219 259 89 129 103 177 136 123 121 109 120 108 109 114 133 146 152 154 153 153 163 153 142 131 130 114 102 103 99 102 104 93 91 90 90 101 104 87 89 93 80 79 108 97 83 69 76 78 106
160 121 127 129 68 223 123 105 121 119 138 161 141 140 148 154 161 163 161 160 163 161 152 144 133 124 115 106 107 117 111 113 101 91 97 98 105 96 98 99 86 88 78 86 83 78 58 103 50
261 135 134 141 181 203 180 119 104 48 150 153 142 145 150 158 165 169 166 159 162 166 161 147 141 135 119 121 122 111 116 118 120 102 107 114 115 102 94 95 84 96 97 67 22 33 349 327 28
228 138 162 179 191 183 129 112 108 75 125 138 144 147 154 158 163 170 170 160 163 166 163 158 153 144 131 132 126 124 120 130 122 126 111 120 117 108 111 90 78 80 99 72 49 16 9 26 109
161 142 159 153 168 148 140 141 78 145 135 145 153 152 160 165 166 166 173 167 171 167 164 156 159 149 148 140 141 132 132 129 133 125 124 122 112 115 117 101 95 92 67 55 22 24 42 75 87
160 126 109 155 161 138 113 146 147 133 157 155 163 158 164 171 166 176 171 171 169 171 162 160 157 155 162 160 157 148 147 146 132 132 136 129 123 104 108 109 109 106 97 59 39 79 105 83 79
168 221 153 102 158 145 138 163 164 194 171 168 168 170 172 180 180 176 173 174 169 165 171 163 164 165 167 167 166 153 141 140 134 150 147 163 139 137 117 117 111 117 125 94 75 47 76 41 33
157 193 167 126 88 149 145 133 163 193 177 176 175 176 177 184 190 189 181 181 176 173 177 176 170 169 169 166 161 159 141 161 161 165 176 199 188 126 118 121 117 151 127 91 83 88 58 29 9
170 177 145 145 165 177 164 122 170 182 190 189 182 179 181 190 196 192 190 185 181 180 184 187 189 168 178 161 155 145 149 125 139 159 161 167 184 167 165 132 125 178 124 116 73 56 69 29 355
153 182 122 101 39 90 2 154 170 180 201 198 182 189 188 194 192 187 192 189 184 186 189 190 198 180 166 167 160 162 160 160 141 161 160 169 156 145 160 150 144 161 125 91 79 65 46 60 14
125 146 96 90 44 90 48 171 166 183 205 198 186 192 193 186 187 186 193 193 194 188 193 192 196 188 176 176 171 166 156 157 151 169 196 179 183 178 179 168 132 105 124 106 69 34 40 43 27
149 146 155 131 121 73 101 32 180 146 164 179 191 202 200 193 189 194 191 196 198 196 193 192 189 185 183 167 144 126 127 132 162 176 183 179 193 186 184 163 188 114 134 97 74 59 41 51 71
171 204 137 134 146 126 196 196 229 183 172 216 217 202 202 204 198 194 194 199 200 201 195 192 188 189 186 175 169 170 173 164 192 177 166 174 194 172 182 190 175 151 109 113 134 110 62 9 59
50 173 151 161 96 140 194 166 199 193 204 196 211 218 208 205 203 196 202 201 201 196 194 195 192 191 191 191 198 177 174 174 154 163 174 185 180 179 182 177 178 170 187 157 173 158 114 90 51
120 129 102 114 141 226 192 216 189 192 207 195 203 218 214 210 203 207 207 187 200 196 196 195 194 196 191 198 199 198 186 174 180 174 193 181 174 168 187 181 201 197 187 192 170 149 153 96 90
185 177 147 179 199 228 156 204 258 200 197 203 201 201 207 208 203 206 200 194 188 198 197 196 197 198 194 195 203 210 208 185 196 201 207 195 188 185 181 185 184 196 214 199 184 192 178 165 134
191 214 195 196 192 188 132 215 192 179 214 218 207 207 201 208 203 204 200 195 192 194 197 199 201 203 194 197 203 211 222 200 197 195 210 210 219 202 179 191 180 179 208 193 202 201 205 191 183
168 221 251 113 4 201 167 220 222 232 217 200 202 197 196 203 205 200 200 197 189 184 187 196 196 203 203 199 203 202 207 224 203 189 200 210 211 223 204 187 201 201 202 206 207 217 202 203 212
223 177 201 222 204 229 190 244 176 174 169 176 187 187 193 194 191 183 179 194 188 175 185 190 185 192 198 200 213 204 199 202 218 201 207 217 224 209 210 197 204 202 205 200 207 220 199 206 208
172 199 207 229 275 217 199 219 171 167 171 172 163 167 172 171 178 172 177 175 145 146 151 175 184 182 180 199 205 225 208 202 210 237 185 183 177 219 252 231 223 216 202 204 201 218 225 226 217
250 222 203 218 193 252 308 135 322 174 164 170 164 154 149 174 176 178 172 157 157 131 111 119 180 199 199 184 197 212 235 214 216 235 244 196 215 205 245 236 239 229 208 212 206 212 215 226 233